Location: *
(48.7358°N, 0.3111°E)
Time: 23:01:58
(UTC+00:00)

Cosmos 1812 Rocket - Pass Details

Date: 22 October 2019
Orbit: 606 x 632 km, 82.5° (Epoch: 12 November)

Event Time Altitude Azimuth Distance (km) Brightness Sun altitude
Rises 05:10:22 0° 353° (N) 2,938 6.9 -13.6°
Reaches altitude 10° 05:12:39 10° 357° (N) 2,024 6.2 -13.2°
Maximum altitude 05:17:06 59° 77° (ENE) 733 4.3 -12.5°
Drops below altitude 10° 05:21:28 10° 158° (SSE) 1,998 6.5 -11.8°
Sets 05:23:43 0° 162° (SSE) 2,896 7.3 -11.4°
